Showing default

CANX-4, 40055

Orbit data source: Space-Track

CANX-4, 40055 is a payload satellite owned by UTIAS-SFL (CA) in SSO that was launched on Mon, 30 Jun 2014 UTC via a PSLV launch vehicle from the Sirharikota (SRI). Payloads include a variety of satellites, spacecraft, and rockets equipped with specific instruments for various scientific and technological missions. These include communications satellites like Starlink; space stations such as the ISS; scientific satellites like the Hubble; Earth observation satellites from companies like Planet Labs, Umbra, and HawkEye 360; GPS; miniature CubeSats for education and research; and military/defense satellites.

Loading next visibility...
CANX-4 details
Identifier
40055, 2014-034C
Orbit
SSO
Last TLE update12 hours ago
Origin
Flag of CAUTIAS-SFL (CA)
ManufacturerUTIAS-SFL
MissionOperational Amateur Technology
Bus & MotorGNB, Unknown motor
Mass7 kg wet, 7 kg dry
Launch date (UTC)
2014-06-30 (10 years ago)
Launch vehicle
PSLV
Launch site
Sirharikota (SRI)
Object type
Payload
Rocket body
Debris
Shape & HBRBox + 4 Ant, 0.2 m
Radar Cross Section0.060 m², Medium (>0.1 m² and < 1m²)

Expand to show TLE details & history

TLE from 12 hours ago
0 CANX-4
1 40055U 14034C   24361.09798707  .00003148  00000-0  42929-3 0  9994
2 40055  98.3770 203.8847 0012223 301.2245  58.7767 14.79393482564914
Epoch: 2024-12-26T02:21Z
Definitive object data (Epoch: 2024-12-26T02:21:06.082Z)
Latitude-0.00004°
Longitude73.5271°
Altitude629.811 km
Speed7.546 km/s
True Right ascension13h 35m 32s
True Declination0° 00' 00"
Sunlit
Object was in daylight at TLE epoch
Visualization TLE readout
Latitude21.20873°
Longitude-102.69063°
Altitude640.577 km
Speed7.536 km/s
Apparent Right ascension01h 49m 22s
Apparent Declination-7° 41' 39"
Sunlit
Object is in full shadow
Visualization observer readout
Local Sidereal Time13:47:37
Azimuth359.193° N
Elevation-57.776°
Doppler factor1
Orbital elements
Apogee altitude636.867 km
Perigee altitude619.739 km
Semi-major axis7,006.44 km
Eccentricity0.0012223
Inclination98.377°
RAAN203.8847°
Arg. of periapsis301.2245°
True anomaly58.89657°
Mean anomaly58.7767°
Eccentric anomaly58.83663°
Mean motion3.70081 °/min
BSTAR0.00042929
Orbital period97.28 mins
Loading maneuver chart data...
Loading historical data...
Loading historical data...
Loading historical data...
Loading historical data...
Loading historical data...
Loading historical data...
Loading historical data...
Other satellites on launch #34 in the year 2014 (2014-06-30 UTC)

CANX-4 Visibility forecast

Observer location: undefined°, undefined

Span
Click to sort rows by Start time (UTC) header in descending order
Start Az.
Max El. time (UTC)
Max El. Az.
Max El.
End time (UTC)
End Az.
6 mins2024-12-27 01:39:47.514Z48.47° ENE2024-12-27 01:42:47.514Z91.986° ESE18.191°2024-12-27 01:45:47.514Z137.568° SSE
6 mins2024-12-27 03:16:47.514Z344.319° N2024-12-27 03:18:47.514Z305.144° NW30.097°2024-12-27 03:22:47.514Z226.046° WSW
6 mins2024-12-27 14:11:47.514Z197.02° SSW2024-12-27 14:14:47.514Z275.767° WNW34.477°2024-12-27 14:17:47.514Z329.33° NNW
|